Voltar ao catálogo

FENGYUN 1C DEB

AtivoSSO
NORAD 31804·DEBRIS·🇨🇳 China

Lançado May 10, 1999 de Taiyuan Satellite Launch Center

Loading…

Próximas Passagens (próximas 24 horas)

TLE

EnvelhecendoSource: Space-Track

Época: Sep 5, 2026, 05:19 UTC

1 31804U 99025CGS 26248.22192008  .00001678  00000-0  82969-3 0  9996
2 31804  98.3032  42.3981 0137730  96.6097 265.0776 14.13709747674258

Acompanhe FENGYUN 1C DEB em tempo real com AllMySat

Download on the App Store